Date,TemperatureHighF,TemperatureAvgF,TemperatureLowF,DewpointHighF,DewpointAvgF,DewpointLowF,HumidityHigh,HumidityAvg,HumidityLow,PressureMaxIn,PressureMinIn,WindSpeedMaxMPH,WindSpeedAvgMPH,GustSpeedMaxMPH,PrecipitationSumIn
2013-1-1,46.6,18.6,5.2,21.5,7.4,-2.8,85,64,30,30.49,30.08,5,1,9,0.05
2013-1-2,34.0,25.6,19.2,22.4,16.5,10.1,87,69,55,30.52,30.22,20,7,28,0.00
2013-1-3,54.0,24.0,9.1,23.7,9.5,-0.5,78,57,23,30.64,30.13,11,1,15,0.16
2013-1-4,46.8,24.4,12.0,25.4,11.5,2.7,76,59,34,30.52,30.01,7,1,9,0.00
2013-1-5,41.2,23.9,18.7,28.7,15.1,4.7,74,69,56,30.54,30.22,17,3,24,0.00
2013-1-6,47.7,25.5,9.9,33.2,15.6,0.3,86,67,42,30.60,29.99,9,1,49,0.16
2013-1-7,53.8,32.8,17.6,28.3,19.9,11.1,85,62,26,30.16,29.85,8,2,10,0.16
2013-1-8,50.9,34.1,16.3,32.4,23.2,7.3,82,65,45,30.40,29.84,17,4,22,0.00
2013-1-9,55.9,35.3,20.3,35.1,25.6,15.0,85,69,42,30.52,30.11,14,5,20,0.00
2013-1-10,52.2,36.9,29.3,44.6,32.4,22.8,99,84,66,30.25,29.55,16,6,20,0.00
2013-1-11,42.4,25.1,5.7,31.6,20.0,-3.6,98,81,59,30.24,29.31,27,6,38,0.00
2013-1-12,20.3,7.5,-1.8,6.0,-3.3,-10.5,67,60,47,30.52,30.20,20,5,27,0.00
2013-1-13,23.5,7.4,-3.3,4.7,-4.8,-12.6,67,56,39,30.64,30.31,10,2,14,0.00
2013-1-14,26.2,9.4,-4.2,12.3,-0.2,-12.6,74,63,48,30.64,30.30,8,2,11,0.16
2013-1-15,39.2,18.9,-4.2,21.6,6.0,-11.9,71,57,28,30.61,30.09,7,1,14,0.01
2013-1-16,48.4,36.2,25.7,30.3,23.4,16.6,74,60,45,30.53,30.12,21,8,26,0.00
2013-1-17,59.7,35.6,18.7,31.7,20.4,9.9,82,58,24,30.68,30.23,11,2,14,0.00
2013-1-18,63.3,40.3,23.9,26.0,20.7,16.2,85,52,18,30.37,29.86,8,2,14,0.00
2013-1-19,65.8,39.8,24.4,21.9,17.8,9.9,78,46,16,30.41,30.00,13,3,21,0.17
2013-1-20,49.1,29.5,17.1,24.9,19.3,12.8,85,68,30,30.54,30.22,18,6,27,0.00
2013-1-21,51.3,27.3,11.3,29.1,18.2,7.2,87,71,35,30.55,30.04,8,2,38,0.17
2013-1-22,62.6,35.9,16.9,23.5,15.3,5.9,85,49,17,30.32,29.92,19,3,25,0.17
2013-1-23,59.4,36.9,24.3,27.6,16.5,12.1,81,48,19,30.44,29.99,9,3,13,0.17
2013-1-24,58.3,33.2,19.0,32.7,23.6,14.8,88,70,32,30.43,29.81,14,6,20,0.00
2013-1-25,60.1,38.2,21.6,31.9,24.9,16.4,83,62,30,30.40,29.96,13,3,17,0.00
2013-1-26,65.8,51.0,37.9,38.1,31.8,25.2,96,52,24,30.05,29.69,8,2,10,0.01
2013-1-27,65.5,41.1,30.2,45.9,36.9,30.0,99,87,43,29.89,29.53,9,2,11,0.02
2013-1-28,55.2,34.0,27.5,41.5,32.0,26.8,99,93,52,29.89,29.49,16,5,26,0.00
2013-1-29,28.6,28.6,28.6,28.1,28.1,28.1,98,98,98,29.88,29.88,4,4,6,0.00
2013-2-13,47.5,37.0,31.3,26.6,23.3,20.6,80,59,36,30.12,29.85,16,8,21,0.00
2013-2-14,35.4,29.6,16.9,31.9,19.1,8.2,91,66,44,30.57,30.11,22,7,29,0.00
2013-2-15,34.9,22.5,13.1,25.7,15.3,7.3,86,74,57,30.60,30.37,17,3,23,0.00
2013-2-16,59.0,36.6,19.0,26.7,19.4,12.7,83,55,22,30.44,29.89,20,5,27,0.00
2013-2-17,66.0,40.2,20.3,28.5,18.5,12.8,76,48,16,30.15,29.35,20,5,27,0.00
2013-2-18,43.7,31.1,17.2,25.9,19.4,11.2,80,64,28,30.38,29.82,26,11,35,0.00
2013-2-19,44.8,31.1,10.6,24.2,15.4,4.8,85,56,32,30.44,29.97,24,11,29,0.00
2013-2-20,41.5,31.8,16.2,20.2,18.6,11.9,88,63,37,30.06,29.99,21,17,23,0.00
2013-2-21,22.6,15.6,7.2,18.5,10.1,0.6,85,79,69,30.23,30.00,10,4,12,0.00
2013-2-22,51.3,25.6,4.3,29.6,13.7,-1.9,81,62,37,30.26,29.84,6,2,9,0.05
2013-2-23,53.1,40.0,37.4,28.6,22.9,18.5,58,50,38,29.97,29.65,8,2,11,0.00
2013-2-24,40.6,34.5,27.1,28.3,26.8,23.8,95,75,58,30.22,29.68,14,5,20,0.02
2013-2-25,27.3,27.3,27.3,24.0,24.0,24.0,87,87,87,30.20,30.20,4,4,7,0.00
2013-2-26,27.3,27.3,27.3,24.0,24.0,24.0,87,87,87,30.20,30.20,4,4,7,0.00
2013-2-27,36.1,27.0,19.9,26.7,18.4,9.9,88,70,58,30.44,30.17,21,12,27,0.01
2013-2-28,45.1,29.5,17.2,25.8,16.1,5.0,70,58,42,30.48,30.17,13,5,18,0.28
2013-3-1,42.6,34.0,19.6,29.0,22.9,13.0,78,64,51,30.47,30.30,13,5,45,0.28
2013-3-2,58.6,47.9,32.9,37.4,33.3,26.7,86,60,43,30.35,30.04,9,4,13,0.00
2013-3-3,68.0,53.6,30.6,43.4,34.3,27.4,89,54,27,30.14,29.43,18,2,24,0.00
2013-3-4,67.8,52.9,21.4,39.2,31.5,7.6,62,45,35,30.44,29.44,19,3,27,0.28
2013-3-5,52.0,29.8,18.1,18.4,11.0,4.3,83,49,21,30.54,30.16,18,6,24,0.00
2013-3-6,44.6,27.7,19.4,30.1,21.1,15.1,87,76,53,30.44,29.88,14,7,17,0.00
2013-3-7,63.0,39.7,21.9,36.8,27.5,19.1,97,68,25,30.15,29.77,6,2,7,0.28
2013-3-8,51.8,38.6,25.0,38.5,31.8,23.0,97,78,54,30.16,29.66,101,4,101,24.09
2013-3-9,40.3,36.7,33.1,38.9,36.2,32.8,99,98,94,29.76,29.60,15,8,24,0.09
2013-3-13,68.7,67.0,24.8,34.4,28.4,20.4,83,25,22,30.23,29.95,2,0,2,0.00
2013-3-14,70.2,58.6,34.5,38.0,28.9,24.7,85,41,18,30.31,30.04,12,3,15,0.00
2013-3-15,79.5,58.9,38.8,42.4,31.5,21.0,85,45,14,30.13,29.58,8,2,9,0.37
2013-3-16,51.6,42.2,31.1,37.5,33.2,28.5,91,72,49,30.12,29.85,18,5,25,0.00
2013-3-17,62.2,38.7,26.1,39.1,28.3,22.8,99,71,29,30.03,29.34,24,11,33,0.00
2013-3-18,51.4,36.1,16.7,24.0,15.5,6.9,84,49,21,30.15,29.80,20,5,27,0.37
2013-3-19,53.6,34.8,20.3,28.1,17.7,12.0,93,55,20,30.58,30.02,21,6,30,0.00
2013-3-20,54.3,35.1,11.1,26.1,18.6,7.8,95,58,23,30.62,29.77,22,8,31,0.00
2013-3-21,50.9,35.1,23.4,36.9,27.4,20.1,99,76,45,29.96,29.53,11,4,17,0.10
2013-3-22,53.2,35.5,28.9,32.2,28.5,21.2,99,81,30,30.01,29.69,11,1,16,0.00
2013-3-23,31.3,27.3,12.9,31.0,25.5,7.1,99,93,75,30.47,30.01,8,1,11,0.00
2013-3-24,55.4,22.8,-3.5,30.1,13.3,-8.9,82,69,30,30.60,29.98,14,4,18,0.03
2013-3-25,45.0,17.6,0.5,23.4,6.4,-6.8,76,63,37,30.69,30.23,10,2,13,0.00
2013-3-26,38.5,24.4,1.9,24.0,11.5,-6.9,72,58,51,30.63,30.11,11,5,14,0.00
2013-3-27,56.1,37.9,23.2,41.0,30.4,20.2,95,76,48,30.28,30.00,8,3,9,0.00
2013-3-28,46.0,31.1,26.1,41.5,29.8,24.1,97,95,84,30.28,30.07,5,1,8,0.00
2013-3-29,77.9,50.5,32.7,49.2,38.0,30.5,97,68,22,30.21,29.72,19,3,24,0.03
2013-3-30,68.5,49.3,35.6,46.2,38.3,33.8,99,70,31,30.26,29.82,16,5,21,0.50
2013-3-31,75.9,50.2,29.7,45.1,31.3,18.2,99,60,13,30.27,29.66,17,4,23,0.00
2013-4-1,53.6,37.0,27.9,32.2,27.0,22.8,85,69,39,30.34,30.03,11,4,17,0.50
2013-4-2,44.8,37.9,29.3,35.7,32.3,26.4,97,80,65,30.30,30.14,16,8,21,0.00
2013-4-3,59.9,42.5,32.2,41.6,35.2,29.5,99,78,44,30.29,29.96,17,8,24,0.52
2013-4-4,72.0,49.8,30.7,39.7,35.5,29.7,96,64,24,30.24,29.82,9,4,14,0.00
2013-4-5,83.1,59.8,42.8,46.2,34.7,23.3,78,45,12,30.03,29.42,26,6,32,0.00
2013-4-6,72.0,56.4,40.6,44.6,31.3,16.3,92,46,12,29.90,29.61,20,6,25,0.00
2013-4-7,76.3,56.3,41.2,54.9,36.2,21.5,97,52,15,29.83,29.42,17,3,22,0.04
2013-4-8,74.7,54.1,36.3,54.7,39.0,28.6,99,64,20,29.73,29.24,36,7,50,0.25
2013-4-11,43.0,36.3,30.6,36.7,33.4,29.8,98,89,78,30.01,29.72,21,9,25,0.06
2013-4-12,46.4,37.8,29.5,41.8,34.6,28.7,99,89,70,30.16,29.89,9,1,14,1.00
2013-4-13,74.7,49.5,28.9,47.1,38.2,28.4,99,71,21,30.15,29.24,17,5,24,0.00
2013-4-14,55.2,51.6,-36.4,43.3,30.5,-36.2,80,49,20,30.44,29.30,16,8,119,1.00
2013-4-15,50.0,50.0,50.0,13.7,13.7,13.7,23,23,23,29.60,29.60,10,10,14,0.00
2013-4-16,50.0,41.0,30.0,31.8,23.1,13.7,99,57,23,30.22,29.60,11,8,107,1.01
2013-4-17,35.4,30.3,23.5,30.0,26.6,20.3,99,87,75,30.28,30.06,11,4,14,0.00
2013-4-18,32.0,26.1,20.7,25.0,20.0,16.6,90,78,65,30.30,30.16,28,5,33,0.01
2013-4-19,56.7,41.1,23.4,34.8,27.1,15.6,82,60,32,30.27,29.88,19,5,24,0.00
2013-4-20,64.8,45.9,29.3,36.5,31.6,26.3,96,63,24,30.07,29.74,13,4,15,0.00
2013-4-21,70.9,52.4,36.3,49.5,38.5,25.5,99,66,22,30.11,29.79,17,4,22,0.17
2013-4-22,52.7,35.6,24.1,51.4,33.6,22.0,99,92,77,30.53,29.84,21,7,27,1.25
2013-4-23,46.4,29.6,23.0,29.7,22.8,17.2,97,76,48,30.50,30.13,10,4,14,0.04
2013-4-24,26.4,24.9,24.8,22.8,21.8,21.8,88,88,86,30.35,30.34,2,0,3,0.00
2013-4-25,81.1,48.3,24.8,38.6,27.3,19.4,88,55,13,30.34,29.60,11,2,17,0.00
2013-4-29,89.8,70.5,55.0,41.4,36.9,29.0,60,33,12,29.49,29.23,8,1,15,0.00
2013-4-30,64.4,52.5,44.4,41.5,38.3,34.3,84,60,34,29.81,29.46,15,7,17,0.00
2013-5-14,98.8,85.1,41.3,54.9,42.2,31.5,51,25,11,29.97,29.44,21,4,32,1.63
2013-5-15,86.0,68.9,53.4,52.5,48.6,39.4,86,52,28,29.86,29.53,13,4,18,0.00
2013-5-16,79.3,64.8,53.2,57.6,52.6,48.4,92,67,42,29.81,29.61,16,3,23,0.04
2013-5-23,62.1,61.3,60.4,55.6,54.1,53.1,84,77,73,29.98,29.95,23,16,27,0.00
2013-5-24,89.1,67.9,54.7,64.4,57.4,51.8,99,73,37,29.97,29.51,25,13,29,0.02
2013-5-25,94.5,73.4,55.0,63.9,56.6,37.5,99,61,15,29.89,29.47,20,6,27,0.00
2013-5-26,91.2,72.1,52.2,61.4,57.4,51.4,99,65,31,29.79,29.46,20,4,27,0.00
2013-5-27,86.4,67.9,51.3,65.9,59.8,47.6,99,77,46,29.70,29.42,17,5,22,0.03
2013-5-28,84.4,66.6,45.3,63.3,53.8,44.5,99,68,34,29.81,29.29,24,7,36,0.03
2013-5-29,74.1,60.5,48.2,60.1,53.9,47.9,99,81,44,29.65,29.29,23,7,28,0.05
2013-5-30,84.6,61.7,40.8,53.8,39.6,22.2,99,54,14,30.14,29.31,19,3,30,2.21
2013-5-31,78.3,62.1,38.7,44.3,34.3,19.9,91,44,14,29.94,29.55,23,8,33,0.00
2013-6-1,72.7,57.3,45.1,47.4,42.1,30.6,82,60,23,30.23,29.91,30,13,39,0.00
2013-6-2,84.6,63.3,39.4,48.5,42.5,35.8,89,53,22,30.26,29.58,23,9,27,0.00
2013-6-3,98.2,71.9,46.9,55.5,47.1,35.3,96,51,12,29.79,29.26,17,6,22,0.00
2013-6-4,80.6,65.5,55.0,59.4,52.6,46.7,99,67,34,30.04,29.71,12,6,20,0.09
2013-6-5,72.3,59.0,49.6,56.7,53.6,45.3,99,85,40,30.12,29.90,8,4,9,0.17
2013-6-6,83.1,64.7,44.6,53.9,48.6,41.5,97,63,25,30.13,29.71,10,3,15,0.00
2013-6-7,86.5,68.4,48.6,55.7,50.2,40.1,99,59,25,30.05,29.53,17,4,24,0.00
2013-6-8,64.4,63.4,61.3,55.9,55.2,53.7,77,75,74,29.86,29.52,18,10,25,0.00
2013-6-9,80.4,65.3,64.4,55.9,55.4,47.2,74,72,32,29.89,29.63,14,14,21,0.00
2013-6-17,64.6,60.6,57.0,57.5,55.2,53.0,90,82,74,30.05,29.92,24,8,28,0.11
2013-6-18,89.2,71.7,55.0,61.6,56.0,51.7,97,63,29,30.10,29.63,17,7,22,0.01
2013-6-19,88.3,74.1,54.0,65.5,60.6,52.3,96,65,44,29.94,29.44,29,12,33,0.00
2013-6-20,96.8,78.8,58.8,65.9,59.9,47.9,99,61,23,29.67,29.44,21,7,26,0.00
2013-6-23,87.3,75.4,61.9,61.7,57.9,50.9,87,56,37,29.85,29.53,14,5,18,0.05
2013-6-24,92.1,75.2,59.5,69.2,60.5,50.5,99,64,33,29.86,29.35,21,6,30,0.07
2013-6-25,102.4,78.6,61.9,78.2,54.3,35.0,99,55,11,29.81,29.43,17,4,24,0.00
2013-6-26,104.4,82.5,57.7,61.3,52.0,35.0,84,42,11,29.90,29.55,14,2,17,0.00
2013-6-27,98.2,80.5,64.9,63.7,57.8,49.9,85,50,23,30.09,29.73,23,4,28,0.00
2013-6-28,96.1,79.2,61.3,67.0,59.4,52.4,94,56,27,30.12,29.75,15,4,21,0.00
2013-6-29,95.2,76.3,58.6,61.9,56.4,50.5,89,55,26,30.13,29.71,13,3,17,0.00
2013-6-30,86.7,70.5,55.2,58.9,53.4,48.2,92,59,32,30.14,29.86,11,3,16,0.00
2013-7-1,83.8,68.6,56.7,61.7,55.7,49.9,99,67,34,30.21,29.96,17,4,24,0.12
2013-7-2,86.9,67.9,53.6,53.7,50.5,44.9,91,58,26,30.23,29.83,11,4,21,0.00
2013-7-3,91.8,71.9,52.7,58.9,49.6,41.5,86,51,18,30.07,29.56,12,4,22,0.00
2013-7-4,96.3,75.3,53.4,61.4,54.1,46.4,94,53,22,29.87,29.47,14,4,20,0.00
2013-7-5,97.5,78.6,57.7,63.6,56.1,50.4,88,50,25,29.78,29.36,11,3,17,0.00
2013-7-6,100.2,81.3,61.5,62.8,57.9,49.4,85,50,20,29.71,29.45,15,4,20,0.00
2013-7-10,88.0,79.4,66.6,67.0,65.6,62.2,86,64,46,29.95,29.75,17,8,23,0.02
2013-7-11,92.5,77.8,59.4,65.7,62.5,57.6,96,63,36,30.01,29.56,108,8,108,3.07
2013-7-12,91.4,81.0,63.3,68.8,64.5,61.9,96,62,41,29.79,29.60,7,4,9,0.00
2013-7-15,69.3,63.3,60.3,66.5,57.9,57.0,92,83,71,30.09,29.83,4,2,8,0.35
2013-7-16,81.9,68.4,55.6,63.7,60.2,55.3,99,78,46,30.18,29.93,17,7,22,0.00
2013-7-17,86.2,72.9,60.4,64.7,62.3,60.2,99,73,44,30.18,29.86,24,11,31,0.00
2013-7-18,96.3,77.4,60.4,66.8,63.4,58.0,99,66,32,30.02,29.59,14,6,18,0.00
2013-7-19,88.7,70.5,59.9,69.1,64.0,59.6,99,82,49,30.04,29.77,15,4,27,0.35
2013-7-20,88.2,73.5,56.3,72.8,64.0,53.6,99,75,46,29.99,29.63,13,3,19,0.01
2013-7-21,88.2,72.2,58.8,69.4,64.0,58.4,99,78,48,29.93,29.53,14,6,20,0.00
2013-7-22,94.1,77.9,63.7,71.1,65.2,59.1,99,70,35,29.76,29.54,16,6,21,0.00
2013-7-23,91.6,74.5,61.3,65.8,60.9,56.0,96,66,34,30.01,29.68,14,5,21,3.75
2013-7-24,89.2,72.4,60.1,70.2,63.5,54.1,99,77,44,30.14,29.74,14,5,18,0.01
2013-7-25,84.9,68.0,56.8,70.0,62.4,56.4,99,84,51,30.09,29.81,11,3,16,0.08
2013-7-26,84.0,71.6,59.0,68.6,62.0,56.5,99,74,45,30.13,29.89,13,3,18,0.00
2013-7-27,72.9,64.2,54.3,63.2,58.1,53.5,99,81,61,30.06,29.85,15,6,18,0.00
2013-7-28,60.4,59.0,56.1,58.5,57.2,53.7,99,94,88,30.02,29.91,9,5,12,0.00
2013-7-29,83.5,64.1,60.1,69.1,61.1,58.3,99,91,56,30.03,29.73,9,4,13,0.02
2013-7-30,94.8,74.7,58.5,73.0,62.2,54.0,99,71,28,30.07,29.74,11,3,16,0.00
2013-7-31,94.1,75.7,59.7,68.3,63.7,59.3,99,71,34,30.15,29.81,14,4,19,3.86
2013-8-1,91.2,73.4,60.3,68.0,62.4,57.9,95,71,42,30.05,29.59,22,5,30,0.00
2013-8-2,99.0,75.0,58.3,68.5,63.6,53.6,99,73,23,29.91,29.55,17,4,21,0.00
2013-8-3,72.1,67.0,63.3,69.4,66.3,62.5,99,97,91,30.10,29.89,21,7,27,0.04
2013-8-4,90.3,73.9,63.7,69.7,65.9,62.6,99,80,42,30.06,29.69,11,5,15,3.90
2013-8-5,97.0,75.6,58.5,69.0,62.7,58.2,99,71,33,29.91,29.56,17,3,24,0.38
2013-8-6,94.3,76.1,60.4,70.1,64.2,57.6,99,71,37,29.93,29.56,17,3,24,0.01
2013-8-7,73.2,64.7,56.1,65.4,60.6,55.5,99,87,61,30.01,29.87,11,3,17,0.10
2013-8-8,79.2,65.2,56.7,64.4,60.3,54.1,99,86,46,30.07,29.83,11,3,14,0.00
2013-8-9,83.1,66.7,50.9,62.4,57.0,50.6,99,75,41,30.14,29.87,10,3,16,0.00
2013-8-10,85.3,69.7,54.0,63.8,59.7,53.1,99,75,45,30.17,29.80,15,6,21,0.00
2013-8-11,90.9,71.7,59.0,67.2,61.0,53.5,99,74,32,30.05,29.75,13,3,19,0.00
2013-8-12,84.0,68.6,58.3,69.7,63.1,57.4,99,84,53,30.08,29.84,11,2,14,0.00
2013-8-13,85.3,66.8,54.3,65.6,59.2,53.5,99,79,47,30.13,29.84,17,4,24,0.06
2013-8-14,88.0,69.5,56.8,67.4,61.0,52.3,99,77,43,30.12,29.74,32,3,40,0.40
2013-8-15,88.5,69.0,55.0,64.4,59.4,54.2,99,75,40,30.08,29.74,10,3,15,0.00
2013-8-16,81.3,66.8,55.4,69.8,63.6,55.1,99,90,65,30.07,29.84,8,3,11,0.00
2013-8-17,83.1,69.2,60.6,70.4,65.3,60.2,99,89,61,30.04,29.76,14,6,17,0.00
2013-8-18,83.5,70.9,62.2,69.7,66.4,61.7,99,87,61,29.97,29.74,13,5,17,0.00
2013-8-19,93.6,75.2,55.0,68.7,63.4,54.2,99,72,36,29.99,29.65,11,3,14,0.00
2013-8-20,93.0,76.1,58.6,71.1,63.3,55.0,99,70,28,29.90,29.59,14,4,17,0.00
2013-8-21,97.7,79.0,57.9,69.8,63.7,57.6,99,65,33,29.92,29.58,11,3,18,0.00
2013-8-22,92.1,75.8,62.1,67.9,64.7,59.1,99,72,35,30.03,29.75,14,4,17,0.00
2013-8-23,90.5,75.1,63.7,70.9,64.8,61.0,99,74,39,29.99,29.58,12,5,17,0.00
2013-8-24,97.9,76.1,56.7,66.5,59.6,54.3,93,60,30,29.92,29.55,14,3,17,0.00
2013-8-25,101.3,78.5,59.0,68.5,60.2,55.7,95,57,25,29.99,29.61,10,4,15,0.00
2013-8-26,98.8,80.4,60.3,68.2,60.9,56.2,92,56,27,30.00,29.61,10,3,14,0.00
2013-8-27,100.2,80.9,62.4,71.0,60.9,56.8,88,55,26,29.94,29.58,8,2,15,0.00
2013-8-28,97.2,77.8,56.3,63.9,55.6,43.7,95,53,18,29.96,29.64,13,2,17,0.00
2013-8-29,107.1,80.3,54.5,67.5,54.4,42.7,90,50,12,30.00,29.57,8,1,11,0.00
2013-8-30,100.4,78.7,61.9,72.9,62.2,52.9,87,59,31,29.98,29.59,11,3,17,0.00
2013-8-31,104.5,80.8,61.7,67.0,60.2,43.5,95,57,14,29.91,29.48,11,3,15,0.00
2013-9-1,89.4,72.3,59.0,62.7,54.4,46.3,91,58,25,30.06,29.79,9,3,13,0.00
2013-9-2,89.1,72.9,55.4,64.5,58.2,52.7,92,63,42,30.07,29.70,14,6,21,0.00
2013-9-3,106.0,77.4,55.6,69.7,58.9,42.7,95,58,12,30.01,29.55,14,3,17,0.00
2013-9-4,101.3,82.3,65.7,67.0,61.9,56.8,93,54,27,30.02,29.66,16,4,24,0.00
2013-9-5,99.9,79.3,63.9,66.6,60.2,52.8,91,58,22,30.01,29.66,11,4,18,0.00
2013-9-6,104.7,80.8,59.5,66.8,55.1,43.4,76,46,13,29.98,29.57,8,3,13,0.00
2013-9-7,99.7,77.6,56.7,65.4,56.5,49.2,91,53,23,29.96,29.58,9,2,14,0.00
2013-9-8,95.7,78.7,59.4,62.2,54.2,46.1,80,47,22,29.89,29.47,16,5,23,0.00
2013-9-9,98.6,76.1,58.1,65.3,58.4,50.4,87,58,28,29.84,29.41,27,5,34,0.00
2013-9-10,86.7,71.1,57.9,63.8,60.3,57.3,99,72,43,30.02,29.78,10,4,14,0.00
2013-9-11,76.5,65.7,59.7,67.6,63.1,59.1,99,92,73,30.12,29.96,11,2,14,0.00
2013-9-12,76.3,65.2,62.2,66.8,63.1,61.0,99,93,65,30.15,30.06,11,4,17,0.00
2013-9-13,62.6,60.7,57.4,61.8,60.2,56.9,99,98,97,30.10,29.86,18,9,24,0.00
2013-9-14,90.9,70.5,60.1,67.1,63.4,59.8,99,81,42,29.89,29.50,21,4,27,0.00
2013-9-15,61.3,58.9,56.5,60.8,58.5,56.2,99,99,96,30.22,29.86,14,4,21,0.00
2013-9-16,56.5,55.8,55.8,56.2,55.5,55.5,99,99,99,30.22,30.20,4,3,8,0.00
2013-9-17,92.3,70.0,55.8,67.7,59.4,48.1,99,75,25,30.20,29.50,9,3,11,0.00
2013-9-18,96.6,71.6,53.6,68.2,57.6,49.9,99,70,23,29.73,29.37,21,2,29,0.02
2013-9-19,72.5,59.1,46.8,59.8,53.2,46.5,99,83,44,30.19,29.71,15,4,23,0.00
2013-9-20,81.9,59.6,41.0,55.2,48.4,40.7,99,73,28,30.23,29.74,9,2,12,0.00
2013-9-21,87.3,65.7,48.2,60.3,54.1,47.9,99,72,34,30.00,29.51,10,4,14,0.00
2013-9-22,90.3,70.1,52.5,65.5,54.4,47.5,99,65,24,29.71,29.23,17,5,23,0.00
2013-9-23,69.6,57.5,46.6,56.1,52.6,46.3,99,84,57,30.01,29.33,33,8,45,1.15
2013-9-24,85.3,60.8,44.1,61.7,44.6,35.0,99,65,20,30.09,29.67,8,2,11,0.00
2013-9-25,88.0,64.9,43.3,52.1,44.7,33.2,93,55,16,29.90,29.18,20,6,26,0.00
2013-9-26,64.6,52.5,51.1,47.6,47.1,45.3,87,83,52,29.61,29.35,11,4,14,0.00
2013-9-27,51.1,51.1,51.1,47.3,47.3,47.3,87,87,87,29.61,29.61,3,3,4,0.00
2013-9-28,70.9,48.8,45.5,47.3,43.1,26.2,97,87,23,29.97,29.61,6,6,14,0.02
2013-12-3,41.3,23.0,16.5,31.5,15.1,8.2,78,70,38,30.01,29.61,2,1,6,0.00
2013-12-4,16.7,8.9,-1.3,11.8,-0.5,-13.2,82,64,51,30.55,29.99,2,0,8,0.00
2013-12-5,20.1,5.7,-7.6,-1.0,-8.9,-16.1,67,49,25,30.62,30.32,49,0,49,7.32
2013-12-6,17.4,6.8,-0.6,2.2,-3.7,-10.0,70,60,43,30.79,30.49,0,0,1,0.00
2013-12-7,10.0,5.9,-1.7,-1.2,-4.7,-10.3,75,60,46,30.79,30.28,1,0,6,0.00
2013-12-8,17.8,5.6,-7.1,8.1,-2.2,-15.1,84,68,48,30.60,30.08,1,0,4,0.00
2013-12-9,39.2,11.7,-6.5,14.0,-1.9,-13.9,69,55,25,30.59,30.07,0,0,2,0.00
2013-12-10,47.5,24.1,1.6,21.9,9.2,-7.3,85,55,23,30.52,29.90,2,0,5,0.00
2013-12-11,39.7,18.9,3.0,23.9,11.4,-1.9,91,73,45,30.80,30.32,2,0,5,0.00
2013-12-12,60.3,31.3,11.5,28.8,13.8,5.5,81,54,19,30.59,29.94,0,0,0,0.00
2013-12-13,50.0,32.1,18.1,23.9,17.1,8.4,77,57,26,30.28,29.75,2,0,5,0.00
2013-12-14,49.5,33.2,21.6,27.5,18.5,7.3,92,59,24,30.39,30.12,1,0,24,7.32
2013-12-15,69.1,38.8,23.9,27.0,17.9,9.4,72,47,16,30.33,29.83,0,0,2,0.00
2013-12-16,68.9,45.5,24.3,25.2,17.7,10.5,72,36,15,30.26,29.86,1,0,4,0.00
2013-12-17,80.6,41.8,26.6,24.6,17.6,13.0,66,40,18,30.46,29.91,14,0,16,7.32
2013-12-18,79.2,45.8,27.5,25.3,18.6,9.9,65,37,12,30.11,29.46,0,0,2,24.20
2013-12-19,42.1,27.8,11.3,28.5,20.1,3.9,96,73,57,30.22,29.62,2,0,7,0.00
2013-12-20,29.1,16.0,9.0,12.1,6.5,1.8,81,66,43,30.22,29.83,0,0,2,0.00
2013-12-21,41.0,25.2,14.0,29.2,15.9,8.7,95,71,31,30.08,29.63,1,0,2,0.00
2013-12-22,44.8,28.0,19.0,27.4,17.3,13.9,93,67,31,30.43,29.99,2,0,4,0.00
2013-12-23,32.4,21.7,13.1,23.5,16.2,6.5,88,79,66,30.64,30.30,0,0,2,0.00
2013-12-24,33.4,28.6,19.4,29.1,23.2,15.1,91,80,74,30.47,30.07,0,0,1,0.00
2013-12-25,46.2,26.4,18.1,19.9,15.1,6.2,87,68,23,30.51,30.30,0,0,2,0.00
2013-12-26,36.3,21.5,20.1,16.7,12.5,9.6,71,68,44,30.46,30.32,0,0,1,0.00
2013-12-27,72.9,36.8,23.5,21.5,16.7,11.6,66,50,13,30.45,29.96,0,0,1,0.00
2013-12-28,67.1,35.9,16.5,31.9,19.5,6.5,77,55,20,30.48,29.67,2,0,5,0.00
2013-12-29,42.4,21.5,3.7,18.4,8.0,-3.2,81,58,29,30.66,30.12,1,0,3,0.00
2013-12-30,47.5,28.8,19.4,19.6,16.1,8.5,74,62,30,30.42,30.11,1,0,3,0.00
2013-12-31,58.5,37.7,26.1,27.9,19.7,15.0,70,51,24,30.25,29.83,1,0,5,0.00
2014-1-1,39.6,29.1,11.5,31.6,23.9,8.7,99,83,59,30.59,29.96,1,0,3,0.00
2014-1-2,50.9,30.3,13.3,35.2,22.0,10.1,96,73,46,30.57,30.16,0,0,1,0.02